Location: Chassagnes
(44.4047°N, 4.1657°E)
Time: 13:00:49
(UTC+00:00)

Cosmos 1400 Rocket - Pass Details

Date: 27 October 2020
Orbit: 521 x 568 km, 81.2° (Epoch: 23 November)

Event Time Altitude Azimuth Distance (km) Brightness Sun altitude
Rises 17:17:21 0° 169° (SSE) 2,753 6.4 -7.4°
Reaches altitude 10° 17:19:39 10° 160° (SSE) 1,858 5.4 -7.8°
Maximum altitude 17:23:25 36° 94° (E) 903 3.4 -8.5°
Drops below altitude 10° 17:27:11 10° 27° (NNE) 1,856 5.2 -9.1°
Sets 17:29:28 0° 19° (NNE) 2,750 6.1 -9.5°
